Temperature
13 13 13 13 13 13 13 13 13 13 13 14 14 14 14 14 14 14 14 14 14 14 14 14 14 14 14 14 14 15 15 15 15 15 15 15 15 15 15 15 15 15 15
13 13 13 13 13 13 13 13 13 13 13 13 13 14 14 14 13 14 14 14 14 14 14 14 14 14 14 14 14 14 15 15 15 15 15 15 15 14 14 14 14 14 14
13 13 12 12 13 13 13 13 13 13 13 13 13 13 13 13 13 13 13 13 14 14 14 14 14 14 14 14 14 14 14 14 14 14 14 14 14 14 14 14 14 14 14
13 12 12 12 12 12 12 12 12 12 13 13 13 13 13 13 13 13 13 13 13 13 13 13 13 13 14 14 14 14 14 14 14 14 14 14 14 14 14 14 14 14 14
12 12 12 12 12 12 12 12 12 12 12 12 12 13 12 13 13 13 13 13 13 13 13 13 13 13 13 13 14 14 14 14 14 14 14 14 14 13 14 14 14 14 14
12 12 12 11 11 11 11 11 11 12 12 12 12 12 12 12 12 12 12 13 13 12 12 13 13 13 13 13 13 13 13 13 13 13 13 13 13 13 13 13 14 14 14
12 12 12 11 11 11 11 11 11 11 11 12 12 12 12 12 12 12 12 12 12 12 12 12 12 12 12 13 13 13 13 13 13 13 13 13 13 13 13 13 13 13 13
12 12 11 11 11 11 11 11 11 11 11 11 12 12 12 12 12 12 12 12 12 12 12 12 12 12 12 12 12 12 13 13 13 13 13 12 12 12 12 12 13 13 13
11 11 11 11 11 11 11 11 11 11 11 11 11 11 11 11 11 12 12 12 11 11 11 11 11 11 11 12 12 12 12 12 12 12 12 12 12 12 12 12 12 12 12
11 11 10 10 10 11 11 10 11 11 10 11 11 11 11 11 11 11 11 11 11 11 11 11 11 11 11 11 11 11 11 12 12 12 12 11 11 11 11 11 12 12 12
10 10 10 10 10 10 10 10 10 10 10 10 11 11 11 11 11 11 11 11 11 11 11 11 11 11 11 11 11 11 11 11 11 11 11 11 11 11 11 11 11 11 11
10 10 9 9 9 10 10 10 10 10 10 10 10 10 10 10 10 10 10 10 10 10 10 10 10 10 10 10 10 10 11 11 11 11 10 10 10 10 10 10 10 10 11
10 9 9 9 9 9 9 9 9 9 9 9 9 9 9 10 10 10 10 10 10 10 10 10 10 10 10 10 10 10 10 10 10 10 10 10 10 9 9 9 9 10 10
9 9 9 9 9 9 9 9 9 9 9 9 9 9 9 9 9 9 9 9 9 9 9 9 9 9 9 9 9 9 9 9 9 9 9 9 9 9 9 9 9 9 9
9 9 9 9 8 8 8 8 8 8 8 8 8 8 8 8 8 9 9 9 9 9 9 9 9 9 9 9 9 9 9 9 9 9 9 8 8 8 8 8 8 8 8
9 9 8 8 8 8 8 8 8 8 8 8 8 7 7 7 8 8 8 8 8 8 8 8 8 8 8 8 8 8 8 8 8 8 8 8 8 8 8 8 8 7 8
8 8 8 8 8 8 8 8 7 7 7 7 7 7 7 7 7 7 7 7 7 7 7 7 7 7 7 7 7 7 7 7 7 7 7 7 7 7 7 7 7 7 7
8 8 7 7 7 7 7 7 7 7 7 6 6 6 6 6 6 6 6 6 7 6 6 6 6 7 7 6 6 6 6 6 6 6 6 6 6 6 6 6 6 6 6
7 7 7 7 6 6 6 6 6 6 6 6 6 6 6 6 6 6 6 6 6 6 6 6 6 6 6 6 6 6 5 5 5 5 5 5 5 5 6 6 6 6 6
6 6 6 6 6 6 5 5 5 5 5 5 5 5 5 5 5 5 5 5 5 5 5 5 5 5 5 5 5 5 4 4 4 4 4 4 4 4 5 5 5 5 5
6 5 5 5 5 5 5 5 5 5 5 5 5 5 5 5 5 5 4 4 4 4 4 4 4 4 4 4 4 4 4 3 3 3 3 3 4 4 4 4 4 4 4
5 5 5 5 5 5 5 5 5 4 4 4 4 4 4 4 4 4 4 4 4 4 4 4 4 4 3 3 3 3 2 2 2 2 2 3 3 3 3 3 3 3 4
5 5 4 4 4 4 4 4 4 4 4 3 3 3 3 3 3 3 3 3 3 3 3 3 3 3 3 3 3 2 2 1 1 1 2 2 2 2 2 2 2 3 3
4 4 4 4 4 4 4 4 4 4 3 3 3 3 3 3 3 3 3 3 3 3 3 3 2 2 2 2 2 2 2 1 1 0 1 1 1 1 2 2 2 2 2
4 4 3 3 3 3 3 3 3 3 3 3 2 2 2 2 2 2 2 2 2 2 2 2 2 2 2 2 2 1 1 1 1 0 -0 0 1 1 1 1 1 1 1
3 3 3 3 3 2 2 2 2 3 2 2 2 2 2 2 2 2 2 2 2 1 1 1 1 1 1 1 1 1 1 1 0 0 -1 -1 -1 -0 0 0 0 0 0
Wind_Speed
2 4 6 9 9 10 11 11 12 13 13 13 13 14 15 15 14 15 15 15 15 16 16 16 17 17 17 17 18 18 19 19 19 18 18 17 17 17 17 17 16 15 17
4 5 8 9 10 11 12 13 13 13 13 13 13 14 14 14 14 15 15 15 15 16 16 16 16 16 17 17 17 18 18 18 18 18 17 16 17 17 17 16 15 14 16
5 6 8 10 11 12 12 13 13 13 13 13 14 14 14 14 15 15 15 15 15 15 16 16 16 16 16 17 17 17 18 17 17 17 15 13 14 16 16 16 16 16 16
7 8 8 11 12 12 13 13 13 13 13 13 14 14 14 15 15 15 16 15 15 15 15 16 16 16 16 17 17 17 17 17 16 15 13 13 12 15 16 16 16 16 16
8 8 9 12 13 13 13 13 13 13 13 13 13 13 14 14 15 15 15 15 16 16 16 15 16 16 16 16 17 17 17 17 16 15 13 13 13 15 16 16 16 16 16
7 8 10 12 13 13 13 13 14 13 13 13 14 13 13 14 14 14 15 15 15 15 15 15 15 16 16 16 16 17 17 17 15 14 13 12 12 15 15 15 15 15 15
7 8 10 12 13 13 13 14 13 13 13 13 13 14 14 13 14 14 14 14 15 15 15 15 15 15 16 16 16 17 16 16 15 13 12 12 12 14 14 14 14 14 15
7 8 9 12 13 13 13 13 13 13 13 13 13 13 13 13 13 13 13 14 14 14 15 15 15 15 15 16 16 16 16 16 14 12 12 11 12 13 13 13 13 13 14
8 7 7 9 11 12 12 12 13 12 12 12 13 13 13 13 13 13 13 13 13 14 14 14 14 15 15 15 16 16 17 16 15 12 11 11 12 12 12 13 12 13 13
7 6 7 8 9 9 11 12 12 12 11 11 12 13 13 13 12 12 12 12 13 13 14 14 14 14 14 15 15 15 16 15 15 13 11 11 12 12 12 12 12 12 12
6 5 6 7 8 9 10 10 11 11 11 11 11 12 12 11 11 11 11 12 12 12 13 13 13 14 13 14 14 14 14 12 13 12 11 12 12 12 12 12 13 12 12
8 7 6 7 8 9 8 9 9 9 10 11 11 11 11 10 10 10 11 11 11 11 12 12 13 13 12 12 12 12 11 12 11 10 11 12 12 13 13 12 12 12 11
9 8 6 7 8 8 7 8 8 9 9 10 10 11 10 10 10 10 10 10 10 10 10 11 11 11 11 10 10 11 11 11 10 10 11 12 11 11 12 12 12 11 11
8 8 7 7 8 8 8 7 7 7 7 7 8 10 10 8 7 7 8 8 9 8 9 9 9 9 10 11 11 10 11 10 10 10 10 11 11 11 11 10 10 10 10
9 8 8 8 8 8 8 7 7 6 7 8 8 9 9 7 6 6 7 8 8 8 8 7 8 8 8 9 9 9 9 10 10 11 10 11 11 11 11 10 9 9 9
10 9 8 8 8 8 7 6 7 7 8 8 8 8 9 8 7 6 6 6 7 7 7 7 7 7 7 7 7 8 8 9 10 10 10 11 11 10 10 10 9 9 8
10 9 9 9 8 8 7 7 7 8 8 7 8 9 9 9 9 8 6 5 6 7 8 8 8 7 6 6 5 6 7 8 8 8 9 9 10 10 10 9 9 9 9
9 9 9 8 8 8 7 7 7 7 7 7 8 8 9 10 10 8 6 5 6 7 6 5 4 4 4 3 3 4 5 6 7 7 8 9 9 9 10 9 9 9 9
9 10 9 9 9 8 7 7 7 7 6 6 7 7 8 9 10 8 6 5 6 6 5 4 3 3 3 3 3 3 4 4 4 6 7 8 8 9 9 9 9 9 9
7 8 9 9 9 8 7 6 5 5 4 5 6 6 7 8 9 8 6 6 6 4 3 3 3 3 2 2 3 3 3 3 4 5 6 7 8 9 10 9 9 8 8
6 8 9 9 9 8 6 5 5 4 3 3 4 6 7 7 8 8 5 5 4 3 3 3 2 3 2 2 3 3 3 3 3 4 5 5 7 8 9 9 9 8 8
8 8 9 9 9 9 7 5 4 4 3 3 3 4 6 7 7 7 6 4 4 3 3 3 3 2 1 1 2 2 2 2 3 3 3 3 4 6 7 8 8 8 8
8 9 8 9 9 8 7 5 5 3 3 2 3 3 4 6 6 6 6 5 4 3 3 3 3 3 2 0 1 2 2 1 1 2 2 2 3 3 5 5 6 7 7
8 7 7 8 8 8 8 8 8 6 5 4 4 3 3 5 6 6 7 6 5 3 4 3 2 2 3 2 0 1 1 2 2 1 2 2 2 2 2 4 4 5 6
6 7 6 7 7 7 8 8 8 6 4 3 4 4 4 3 5 6 6 6 5 4 4 3 2 2 2 2 2 1 1 1 1 2 2 3 3 2 2 2 3 4 5
4 5 6 7 6 6 7 8 8 7 6 6 5 5 4 3 3 4 5 5 5 5 5 4 4 3 3 2 2 1 2 2 1 1 2 2 3 3 3 2 2 3 4
Wind_Direction
201 216 164 133 125 119 114 106 100 97 95 91 88 86 85 83 81 82 80 80 78 76 75 74 72 71 71 71 71 70 69 67 65 66 65 68 72 75 75 74 73 71 75
169 174 149 132 125 119 114 109 103 99 97 94 90 87 87 85 83 82 81 81 79 77 76 75 73 71 71 71 71 71 70 67 65 63 61 63 68 72 73 73 72 73 74
140 149 139 128 121 117 112 107 104 101 99 96 93 90 89 88 85 83 81 80 81 79 76 75 73 71 72 72 72 71 69 66 65 62 59 57 65 71 73 72 71 70 72
137 140 136 130 124 120 114 108 103 100 100 98 95 92 91 90 88 85 83 81 82 81 79 76 74 72 73 74 73 70 68 65 64 62 58 55 62 70 72 72 70 68 70
128 134 138 131 125 121 117 112 107 102 98 96 96 94 91 90 90 88 85 83 82 81 79 77 74 73 73 73 73 71 69 66 63 59 56 54 59 70 71 71 70 69 69
124 128 137 131 127 123 119 115 108 103 101 98 95 94 92 90 89 88 87 85 84 82 80 78 76 75 73 72 72 71 68 66 61 57 55 57 62 69 70 71 70 69 69
122 124 135 130 128 126 121 115 109 105 102 100 96 93 92 91 90 89 87 86 84 82 80 78 78 77 74 72 71 70 67 64 61 56 55 58 66 70 70 71 72 71 70
125 121 131 133 129 126 121 115 112 108 104 101 97 95 92 90 91 90 88 86 86 84 81 79 79 79 76 74 73 71 66 64 63 57 52 56 69 71 70 70 72 72 72
120 117 117 124 129 129 123 118 114 110 105 102 98 94 91 89 87 89 89 88 87 86 83 80 79 79 78 76 75 73 68 63 57 53 54 56 67 70 70 69 71 72 72
116 115 113 115 117 118 120 120 115 111 106 102 99 95 91 89 86 85 85 88 87 86 84 81 80 78 76 75 74 72 68 61 54 51 51 59 66 69 69 68 69 70 72
131 125 120 115 112 112 115 120 117 114 110 104 100 96 90 85 82 81 82 83 83 83 83 81 80 76 73 72 72 70 66 61 56 50 51 60 65 67 68 68 66 66 72
158 153 137 130 124 119 119 116 112 109 106 100 100 97 93 89 86 85 84 80 80 80 80 79 78 73 68 64 67 66 63 59 57 52 53 60 65 66 65 64 64 62 67
163 156 149 141 132 123 115 114 109 108 106 104 103 103 100 93 89 84 81 76 73 74 72 71 68 65 65 63 65 63 62 59 55 53 51 58 61 64 65 63 61 59 62
160 163 152 143 136 129 125 120 115 110 108 107 110 111 105 95 87 83 80 74 69 70 71 68 67 66 67 67 68 66 62 60 53 50 50 53 57 61 63 63 61 58 56
166 166 162 149 145 139 131 127 123 119 114 116 116 114 112 105 96 87 83 79 73 72 70 68 68 68 67 66 68 70 65 61 56 51 48 51 55 57 58 58 58 56 56
174 171 165 156 147 141 136 132 130 127 124 121 117 117 116 114 107 96 84 78 74 76 75 74 74 71 66 67 68 69 68 65 60 54 49 47 50 52 55 55 53 52 52
177 170 166 160 147 143 137 133 132 131 130 122 120 121 118 119 113 104 92 79 77 82 81 75 71 70 66 63 63 65 68 68 65 58 51 48 46 46 50 52 51 49 48
170 167 167 161 151 147 139 132 128 129 127 123 125 122 122 122 118 108 96 84 89 87 80 77 68 71 62 58 56 53 61 67 66 61 55 50 49 44 43 47 50 46 43
174 168 166 160 157 152 141 132 125 125 123 126 126 124 127 127 124 115 104 98 100 90 77 80 69 84 82 66 65 57 55 64 66 62 59 54 52 49 44 42 46 45 41
171 167 165 160 157 150 139 127 118 114 117 125 122 124 128 130 127 120 110 106 106 96 81 77 89 75 93 82 76 53 35 48 67 63 58 56 53 49 47 44 40 39 37
162 165 167 164 162 157 157 157 156 160 154 130 127 133 133 136 135 128 121 114 107 109 111 104 111 98 74 82 80 51 23 27 53 58 59 61 49 45 43 40 35 33 26
173 171 171 170 170 170 169 164 159 151 154 149 136 137 141 144 145 144 133 128 121 119 120 117 120 120 110 79 98 97 46 8 12 22 42 60 48 42 36 31 29 26 22
181 182 180 174 171 168 156 143 133 119 114 138 163 165 156 152 152 150 148 144 139 140 154 157 151 135 154 122 83 119 140 196 309 339 8 32 33 35 22 19 16 10 9
190 183 175 171 167 165 157 159 161 169 173 184 180 175 162 155 156 159 160 158 154 156 164 176 161 159 155 165 112 58 120 149 163 299 322 343 350 357 352 354 351 353 357
182 176 172 164 163 165 167 168 170 171 168 155 160 164 171 170 168 168 171 169 167 170 174 176 174 166 165 174 173 146 82 64 139 184 262 301 320 306 314 319 320 325 334
166 168 167 166 167 167 170 173 176 173 166 163 170 176 182 184 186 180 179 179 181 181 182 185 187 180 180 177 177 178 176 182 195 188 230 269 285 292 296 284 278 303 319
Height
1523 1525 1527 1528 1529 1529 1530 1530 1531 1531 1531 1531 1531 1531 1531 1532 1532 1532 1532 1532 1532 1532 1532 1532 1532 1532 1532 1533 1533 1533 1533 1533 1533 1533 1533 1534 1534 1534 1534 1534 1534 1534 1534
1521 1524 1526 1527 1528 1529 1529 1530 1530 1531 1531 1532 1532 1532 1532 1532 1532 1532 1533 1533 1533 1533 1533 1533 1533 1533 1534 1534 1534 1534 1534 1534 1534 1535 1535 1535 1535 1536 1536 1536 1536 1536 1537
1521 1523 1525 1526 1528 1528 1529 1529 1530 1530 1531 1531 1532 1532 1532 1532 1533 1533 1533 1533 1533 1533 1534 1534 1534 1534 1534 1535 1535 1535 1535 1535 1536 1536 1536 1536 1537 1537 1537 1537 1538 1538 1538
1520 1522 1524 1526 1527 1528 1528 1529 1529 1530 1531 1531 1532 1532 1532 1533 1533 1533 1533 1534 1534 1534 1534 1534 1535 1535 1535 1535 1535 1536 1536 1537 1537 1537 1537 1538 1538 1539 1539 1539 1539 1539 1539
1519 1521 1523 1525 1526 1527 1528 1528 1529 1530 1530 1531 1532 1532 1533 1533 1533 1534 1534 1534 1534 1534 1534 1535 1535 1536 1536 1536 1536 1537 1537 1537 1538 1538 1538 1539 1539 1540 1540 1540 1540 1540 1541
1518 1520 1522 1524 1525 1526 1527 1528 1529 1529 1530 1531 1532 1532 1533 1533 1533 1534 1534 1534 1534 1534 1535 1535 1536 1536 1536 1537 1537 1537 1538 1538 1538 1539 1539 1539 1540 1541 1541 1541 1541 1542 1542
1518 1520 1521 1523 1524 1525 1526 1527 1528 1529 1530 1531 1531 1532 1532 1533 1533 1534 1534 1534 1534 1535 1535 1536 1536 1536 1537 1537 1537 1538 1538 1538 1539 1539 1540 1540 1541 1541 1541 1542 1542 1542 1542
1517 1519 1520 1522 1523 1524 1525 1527 1528 1529 1529 1530 1531 1531 1532 1532 1533 1534 1534 1534 1535 1535 1535 1536 1536 1536 1537 1537 1537 1538 1538 1538 1539 1539 1540 1540 1541 1542 1542 1542 1543 1543 1543
1516 1518 1519 1521 1522 1523 1525 1526 1527 1528 1529 1529 1530 1530 1531 1532 1533 1533 1534 1534 1535 1535 1535 1535 1536 1536 1537 1537 1538 1538 1538 1539 1539 1539 1540 1541 1542 1542 1542 1543 1543 1543 1544
1515 1517 1518 1520 1521 1522 1523 1525 1526 1527 1528 1528 1529 1530 1531 1531 1532 1533 1533 1534 1534 1535 1535 1535 1535 1536 1537 1537 1538 1538 1538 1539 1539 1539 1540 1541 1542 1542 1542 1543 1543 1543 1544
1513 1515 1516 1518 1520 1521 1522 1524 1525 1526 1527 1528 1528 1529 1530 1530 1531 1532 1533 1533 1534 1534 1535 1535 1535 1536 1536 1537 1537 1538 1538 1539 1539 1539 1539 1541 1541 1542 1542 1543 1543 1543 1544
1510 1512 1514 1516 1518 1519 1521 1522 1523 1524 1525 1526 1527 1528 1529 1529 1530 1531 1532 1532 1533 1533 1534 1534 1535 1536 1536 1536 1537 1538 1538 1538 1538 1539 1539 1540 1541 1541 1542 1542 1542 1543 1543
1507 1510 1512 1514 1516 1518 1519 1520 1521 1523 1524 1525 1526 1527 1527 1528 1529 1530 1531 1531 1532 1533 1533 1534 1534 1535 1536 1536 1537 1537 1538 1538 1538 1539 1539 1540 1541 1541 1541 1542 1542 1542 1543
1505 1507 1509 1512 1514 1516 1517 1518 1520 1521 1522 1523 1524 1525 1526 1527 1528 1529 1529 1530 1531 1532 1532 1533 1534 1534 1535 1536 1536 1537 1537 1537 1537 1538 1539 1539 1540 1540 1541 1541 1541 1542 1542
1503 1505 1507 1509 1511 1513 1515 1516 1518 1519 1520 1522 1523 1524 1525 1526 1527 1528 1528 1529 1530 1530 1531 1532 1533 1534 1534 1535 1535 1536 1536 1536 1537 1537 1538 1538 1539 1539 1540 1540 1540 1541 1541
1500 1502 1505 1507 1509 1511 1513 1514 1516 1517 1518 1520 1521 1522 1523 1524 1525 1526 1527 1528 1528 1529 1530 1531 1532 1532 1533 1534 1534 1535 1535 1535 1536 1536 1536 1537 1537 1538 1538 1538 1539 1539 1540
1497 1500 1502 1504 1506 1508 1510 1512 1513 1514 1516 1517 1519 1520 1521 1522 1524 1524 1526 1526 1527 1528 1528 1529 1530 1531 1532 1532 1533 1533 1534 1534 1534 1535 1535 1535 1535 1536 1536 1537 1537 1537 1538
1494 1497 1499 1501 1503 1505 1507 1509 1511 1512 1514 1515 1517 1518 1519 1521 1522 1523 1524 1525 1526 1526 1527 1527 1528 1529 1530 1530 1531 1531 1532 1532 1533 1533 1533 1534 1534 1534 1534 1535 1535 1535 1536
1491 1493 1496 1498 1500 1502 1504 1506 1508 1510 1511 1513 1514 1516 1517 1519 1520 1521 1522 1523 1524 1525 1525 1526 1527 1527 1528 1528 1529 1530 1530 1531 1531 1531 1532 1532 1532 1532 1532 1533 1533 1533 1534
1488 1490 1493 1495 1497 1499 1502 1504 1506 1507 1509 1510 1511 1513 1515 1516 1518 1519 1520 1521 1522 1523 1523 1524 1525 1525 1526 1526 1527 1527 1528 1529 1529 1529 1530 1530 1530 1530 1530 1530 1531 1531 1531
1484 1487 1489 1492 1494 1496 1498 1500 1502 1503 1505 1507 1509 1511 1512 1514 1515 1516 1518 1519 1520 1520 1521 1522 1523 1523 1524 1524 1525 1525 1526 1527 1527 1527 1528 1528 1528 1528 1528 1528 1528 1529 1529
1480 1482 1485 1488 1490 1493 1495 1497 1499 1501 1503 1505 1506 1508 1510 1511 1513 1514 1515 1516 1517 1518 1519 1520 1521 1521 1521 1522 1522 1522 1523 1525 1524 1525 1525 1526 1526 1526 1526 1526 1526 1526 1526
1476 1478 1480 1483 1486 1489 1491 1494 1496 1498 1500 1501 1503 1504 1506 1508 1509 1511 1513 1514 1515 1516 1516 1517 1518 1519 1519 1520 1521 1521 1522 1521 1522 1522 1522 1523 1523 1523 1523 1523 1523 1523 1523
1472 1475 1477 1480 1483 1485 1488 1490 1491 1493 1494 1496 1499 1501 1503 1505 1506 1508 1509 1510 1511 1513 1514 1515 1516 1516 1517 1517 1518 1519 1520 1519 1520 1519 1519 1520 1520 1520 1521 1521 1520 1520 1520
1469 1472 1474 1476 1479 1482 1484 1486 1488 1490 1492 1494 1496 1498 1500 1501 1503 1505 1506 1507 1508 1509 1510 1512 1512 1513 1514 1515 1515 1515 1516 1517 1517 1517 1516 1516 1517 1518 1518 1517 1517 1517 1517
1466 1469 1471 1473 1475 1478 1480 1482 1484 1486 1488 1490 1492 1494 1496 1498 1499 1501 1502 1503 1504 1506 1507 1508 1509 1510 1511 1512 1512 1513 1513 1514 1514 1514 1513 1513 1513 1514 1514 1514 1514 1513 1513